{"data":{"norad_id":38861,"epoch":"2026-09-20T04:15:43.170336Z","epoch_age_seconds":58134,"freshness":"FRESH","line1":"1 38861U 12056B   26263.17758299  .00001263  00000+0  13105-3 0  9991","line2":"2 38861  97.6096 243.8943 0013556 257.9884 101.9816 14.91612017753880","mean_motion":14.91612017,"eccentricity":0.0013556,"inclination_deg":97.6096,"raan_deg":243.8943,"arg_perigee_deg":257.9884,"mean_anomaly_deg":101.9816,"bstar":0.00013105,"rev_number":75388,"period_min":96.539849745659,"perigee_km":583.45868280701,"apogee_km":602.35858172521,"semimajor_km":6971.0456322661,"source":"CELESTRAK","updated_at":"2026-09-20T09:00:13.867021Z"}}